Location: Carrer del Canonge
(41.4901°N, 2.2931°E)
Time: 13:34:39
(UTC+00:00)

HJ-1C - Pass Details

Date: 18 September 2020
Orbit: 432 x 443 km, 97.1° (Epoch: 29 October)

Event Time Altitude Azimuth Distance (km) Brightness Sun altitude
Rises 18:23:09 0° 148° (SSE) 2,394 6.7 -6.2°
Reaches altitude 10° 18:25:16 10° 138° (SE) 1,532 5.6 -6.6°
Maximum altitude 18:28:14 33° 73° (ENE) 760 4.1 -7.1°
Drops below altitude 10° 18:31:14 10° 8° (N) 1,547 6.1 -7.7°
Sets 18:33:23 0° 358° (N) 2,421 7.3 -8.1°
